Location: Grums
(59.3529°N, 13.1129°E)
Time: 00:19:30
(UTC+01:00)

SEEDS - Pass Details

Date: 06 December 2021
Orbit: 584 x 600 km, 97.6° (Epoch: 27 January)

Event Time Altitude Azimuth Distance (km) Brightness Sun altitude
Rises 07:08:40 0° 9° (N) 2,829 ? -10.8°
Reaches altitude 10° 07:11:46 10° 344° (NNW) 1,923 ? -10.5°
Maximum altitude 07:13:51 14° 314° (NW) 1,688 ? -10.2°
Enters shadow 07:14:10 14° 309° (NW) 1,693 ? -10.2°
